FW8253 Weather Reports


time (UTC)temp
F
wind
direction
speed
knots
gust
knots
rain 1hr
in
rain 24hr
in
rain mn
in
humidity
%
barometer
mb
20260901201250 91 249 0.0 0.0 0.00 0.00 0.00 67 1017.8
20260901200744 92 232 0.0 0.0 0.00 0.00 0.00 67 1017.8
20260901200240 93 218 0.0 0.0 0.00 0.00 0.00 64 1018.0
20260901195738 96 225 0.0 0.0 0.00 0.00 0.00 57 1018.1
20260901195232 95 196 0.0 0.0 0.00 0.00 0.00 57 1018.1
20260901194728 96 170 0.0 0.0 0.00 0.00 0.00 56 1017.9
20260901194222 95 229 0.0 0.0 0.00 0.00 0.00 59 1018.2
20260901193719 93 224 0.0 0.0 0.00 0.00 0.00 60 1018.1
20260901193218 92 258 0.0 0.0 0.00 0.00 0.00 59 1018.5
20260901192712 93 234 0.0 0.0 0.00 0.00 0.00 61 1018.3
20260901192208 96 227 0.0 0.0 0.00 0.00 0.00 55 1018.4
20260901191703 97 234 0.0 0.0 0.00 0.00 0.00 53 1018.1
20260901191159 98 236 0.0 0.0 0.00 0.00 0.00 51 1018.5
20260901190655 99 239 0.0 0.0 0.00 0.00 0.00 51 1018.5
20260901190154 98 239 0.0 0.0 0.00 0.00 0.00 55 1018.5
20260901185653 98 231 0.0 0.0 0.00 0.00 0.00 53 1018.5
20260901185151 96 174 0.0 0.0 0.00 0.00 0.00 55 1018.6
20260901184650 93 234 0.0 0.0 0.00 0.00 0.00 63 1018.7
20260901184142 95 250 0.0 0.0 0.00 0.00 0.00 58 1018.8
20260901183638 95 296 0.0 0.0 0.00 0.00 0.00 57 1018.8
20260901183133 95 242 0.0 0.0 0.00 0.00 0.00 56 1019.0
20260901182629 96 320 0.0 0.0 0.00 0.00 0.00 54 1018.8
20260901182128 97 194 0.0 0.0 0.00 0.00 0.00 52 1018.9
20260901181628 96 284 0.0 0.0 0.00 0.00 0.00 55 1019.0
20260901181122 97 237 0.0 0.0 0.00 0.00 0.00 53 1019.0
20260901180622 98 132 0.0 0.0 0.00 0.00 0.00 52 1019.0
20260901180116 96 194 0.0 0.0 0.00 0.00 0.00 54 1019.0
20260901175615 95 176 0.0 0.0 0.00 0.00 0.00 55 1019.0
20260901175110 93 248 0.0 0.0 0.00 0.00 0.00 61 1019.3
20260901174605 92 226 0.0 0.0 0.00 0.00 0.00 65 1019.2
20260901174101 91 244 0.0 0.0 0.00 0.00 0.00 71 1019.5
20260901173555 92 243 0.0 0.0 0.00 0.00 0.00 67 1019.6
20260901173052 92 260 0.0 0.0 0.00 0.00 0.00 62 1019.6
20260901172547 93 13 0.0 0.0 0.00 0.00 0.00 62 1019.7
20260901172045 94 226 0.0 0.0 0.00 0.00 0.00 62 1019.6
20260901171539 94 342 0.0 0.0 0.00 0.00 0.00 62 1019.8
20260901171038 90 183 0.0 0.0 0.00 0.00 0.00 68 1019.6
20260901170537 89 231 0.0 0.0 0.00 0.00 0.00 72 1019.7
20260901170032 90 233 0.0 0.0 0.00 0.00 0.00 71 1019.9
20260901165526 91 238 0.0 0.0 0.00 0.00 0.00 70 1019.9
20260901165022 91 244 0.0 0.0 0.00 0.00 0.00 69 1020.1
20260901164517 91 228 0.0 0.0 0.00 0.00 0.00 69 1020.0
20260901164012 92 237 0.0 0.0 0.00 0.00 0.00 67 1019.9
20260901163508 93 237 0.0 0.0 0.00 0.00 0.00 67 1020.2
20260901163006 92 179 0.0 0.0 0.00 0.00 0.00 67 1020.3
20260901162503 91 189 0.0 0.0 0.00 0.00 0.00 69 1020.2
20260901162001 92 173 0.0 0.0 0.00 0.00 0.00 68 1020.3
20260901161501 92 246 0.0 0.0 0.00 0.00 0.00 65 1020.3
20260901161000 93 167 0.0 0.0 0.00 0.00 0.00 64 1020.4
20260901160456 91 225 0.0 0.0 0.00 0.00 0.00 70 1020.7
20260901155956 90 81 0.0 0.0 0.00 0.00 0.00 70 1020.8
20260901155455 90 227 0.0 0.0 0.00 0.00 0.00 71 1020.9
20260901154952 91 256 0.0 0.0 0.00 0.00 0.00 70 1020.8
20260901154452 91 132 0.0 0.0 0.00 0.00 0.00 69 1020.9
20260901153946 91 282 0.0 0.0 0.00 0.00 0.00 69 1020.9
20260901153441 91 147 0.0 0.0 0.00 0.00 0.00 70 1021.0
20260901152940 91 204 0.0 0.0 0.00 0.00 0.00 69 1020.8
20260901152435 91 231 0.0 0.0 0.00 0.00 0.00 70 1021.1
20260901151935 91 261 0.0 0.0 0.00 0.00 0.00 70 1020.9
20260901151430 92 231 0.0 0.0 0.00 0.00 0.00 71 1021.1
20260901150929 90 256 0.0 0.0 0.00 0.00 0.00 71 1021.1
20260901150427 90 220 0.0 0.0 0.00 0.00 0.00 74 1021.1
20260901145924 89 224 0.0 0.0 0.00 0.00 0.00 74 1021.0
20260901145419 89 240 0.0 0.0 0.00 0.00 0.00 74 1021.1
20260901144914 90 69 0.0 0.0 0.00 0.00 0.00 72 1021.0
20260901144409 88 226 0.0 0.0 0.00 0.00 0.00 76 1021.1
20260901143905 88 163 0.0 0.0 0.00 0.00 0.00 76 1021.2
20260901143401 88 269 0.0 0.0 0.00 0.00 0.00 77 1021.1
20260901142857 88 176 0.0 0.0 0.00 0.00 0.00 76 1021.0
20260901142356 87 224 0.0 0.0 0.00 0.00 0.00 79 1021.2
20260901141851 86 198 0.0 0.0 0.00 0.00 0.00 79 1021.3
20260901141346 86 192 0.0 0.0 0.00 0.00 0.00 78 1021.2
20260901140845 86 181 0.0 0.0 0.00 0.00 0.00 77 1021.0
20260901140343 85 195 0.0 0.0 0.00 0.00 0.00 78 1021.1
20260901135838 85 233 0.0 0.0 0.00 0.00 0.00 79 1020.9
20260901135334 85 160 0.0 0.0 0.00 0.00 0.00 79 1020.9
20260901134830 84 123 0.0 0.0 0.00 0.00 0.00 80 1020.9
20260901134325 84 177 0.0 0.0 0.00 0.00 0.00 82 1021.1
20260901133819 84 152 0.0 0.0 0.00 0.00 0.00 83 1021.0
20260901133318 83 150 0.0 0.0 0.00 0.00 0.00 84 1020.9
20260901132817 82 199 0.0 0.0 0.00 0.00 0.00 87 1020.9
20260901132312 83 178 0.0 0.0 0.00 0.00 0.00 86 1020.8
20260901131806 82 168 0.0 0.0 0.00 0.00 0.00 86 1020.8
20260901131306 81 157 0.0 0.0 0.00 0.00 0.00 88 1020.8
20260901130801 80 181 0.0 0.0 0.00 0.00 0.00 91 1021.1
20260901130301 78 180 0.0 0.0 0.00 0.00 0.00 97 1020.8
20260901125758 75 181 0.0 0.0 0.00 0.00 0.00 99 1020.9
20260901125253 75 181 0.0 0.0 0.00 0.00 0.00 99 1021.1
20260901124748 74 181 0.0 0.0 0.00 0.00 0.00 99 1020.9
20260901124243 74 181 0.0 0.0 0.00 0.00 0.00 99 1021.0
20260901123742 73 181 0.0 0.0 0.00 0.00 0.00 99 1021.0
20260901123237 73 181 0.0 0.0 0.00 0.00 0.00 99 1021.2
20260901122736 72 181 0.0 0.0 0.00 0.00 0.00 99 1021.2
20260901122231 72 181 0.0 0.0 0.00 0.00 0.00 99 1021.0
20260901121730 72 181 0.0 0.0 0.00 0.00 0.00 99 1020.9
20260901121226 71 181 0.0 0.0 0.00 0.00 0.00 99 1020.8
20260901120725 71 181 0.0 0.0 0.00 0.00 0.00 99 1020.9
20260901120220 71 181 0.0 0.0 0.00 0.00 0.00 99 1020.9
20260901115715 71 181 0.0 0.0 0.00 0.00 0.00 99 1020.9
20260901115212 70 181 0.0 0.0 0.00 0.00 0.00 99 1020.7
20260901114708 70 181 0.0 0.0 0.00 0.00 0.00 99 1020.7
20260901114203 70 181 0.0 0.0 0.00 0.00 0.00 99 1020.4
20260901113701 70 181 0.0 0.0 0.00 0.00 0.00 99 1020.7
20260901113157 70 181 0.0 0.0 0.00 0.00 0.00 99 1020.5
20260901112656 70 181 0.0 0.0 0.00 0.00 0.00 99 1020.4
20260901112151 70 181 0.0 0.0 0.00 0.00 0.00 99 1020.2
20260901111650 70 181 0.0 0.0 0.00 0.00 0.00 99 1020.3
20260901111149 70 181 0.0 0.0 0.00 0.00 0.00 99 1020.3
20260901110644 70 181 0.0 0.0 0.00 0.00 0.00 99 1020.2
20260901110140 70 181 0.0 0.0 0.00 0.00 0.00 99 1019.9
20260901105637 70 181 0.0 0.0 0.00 0.00 0.00 99 1019.9
20260901105136 70 181 0.0 0.0 0.00 0.00 0.00 99 1019.8
20260901104632 70 181 0.0 0.0 0.00 0.00 0.00 99 1019.9
20260901104127 70 181 0.0 0.0 0.00 0.00 0.00 99 1019.7
20260901103626 70 181 0.0 0.0 0.00 0.00 0.00 99 1019.8
20260901103122 70 181 0.0 0.0 0.00 0.00 0.00 99 1019.9
20260901102622 70 181 0.0 0.0 0.00 0.00 0.00 99 1019.9
20260901102116 71 181 0.0 0.0 0.00 0.00 0.00 99 1019.6
20260901101613 71 181 0.0 0.0 0.00 0.00 0.00 99 1019.7
20260901101112 71 181 0.0 0.0 0.00 0.00 0.00 99 1019.7
20260901100612 71 181 0.0 0.0 0.00 0.00 0.00 99 1019.6
20260901100107 71 181 0.0 0.0 0.00 0.00 0.00 99 1019.8
20260901095604 71 181 0.0 0.0 0.00 0.00 0.00 99 1019.5
20260901095102 71 181 0.0 0.0 0.00 0.00 0.00 99 1019.7
20260901094557 71 181 0.0 0.0 0.00 0.00 0.00 99 1019.6
20260901094057 71 181 0.0 0.0 0.00 0.00 0.00 99 1019.9
20260901093552 71 181 0.0 0.0 0.00 0.00 0.00 99 1019.7
20260901093046 71 181 0.0 0.0 0.00 0.00 0.00 99 1019.6
20260901092542 71 181 0.0 0.0 0.00 0.00 0.00 99 1019.8
20260901092038 71 181 0.0 0.0 0.00 0.00 0.00 99 1019.6
20260901091534 71 181 0.0 0.0 0.00 0.00 0.00 99 1019.7
20260901091033 71 181 0.0 0.0 0.00 0.00 0.00 99 1019.6
20260901090527 71 181 0.0 0.0 0.00 0.00 0.00 99 1019.7
20260901090023 72 181 0.0 0.0 0.00 0.00 0.00 99 1019.7
20260901085518 72 181 0.0 0.0 0.00 0.00 0.00 99 1019.7
20260901085015 72 181 0.0 0.0 0.00 0.00 0.00 99 1019.8
20260901084510 72 182 0.0 0.0 0.00 0.00 0.00 99 1019.6
20260901084007 72 183 0.0 0.0 0.00 0.00 0.00 99 1019.6
20260901083506 72 183 0.0 0.0 0.00 0.00 0.00 99 1019.8
20260901083004 72 183 0.0 0.0 0.00 0.00 0.00 99 1019.7
20260901082459 72 183 0.0 0.0 0.00 0.00 0.00 99 1019.6
20260901081955 72 183 0.0 0.0 0.00 0.00 0.00 99 1019.5
20260901081449 72 183 0.0 0.0 0.00 0.00 0.00 99 1019.7
20260901080944 72 183 0.0 0.0 0.00 0.00 0.00 99 1019.6
20260901080438 72 183 0.0 0.0 0.00 0.00 0.00 99 1019.6
20260901075933 72 183 0.0 0.0 0.00 0.00 0.00 99 1019.5
20260901075428 72 183 0.0 0.0 0.00 0.00 0.00 99 1019.4
20260901074928 73 183 0.0 0.0 0.00 0.00 0.00 99 1019.4
20260901074427 73 183 0.0 0.0 0.00 0.00 0.00 99 1019.4
20260901073923 73 183 0.0 0.0 0.00 0.00 0.00 99 1019.8
20260901073419 73 183 0.0 0.0 0.00 0.00 0.00 99 1019.6
20260901072915 73 183 0.0 0.0 0.00 0.00 0.00 99 1019.7
20260901072415 73 183 0.0 0.0 0.00 0.00 0.00 99 1019.9
20260901071910 73 183 0.0 0.0 0.00 0.00 0.00 99 1019.7
20260901071408 73 183 0.0 0.0 0.00 0.00 0.00 99 1019.5
20260901070907 73 183 0.0 0.0 0.00 0.00 0.00 99 1019.8
20260901070403 73 183 0.0 0.0 0.00 0.00 0.00 99 1019.9
20260901065902 73 183 0.0 0.0 0.00 0.00 0.00 99 1019.8
20260901065357 74 183 0.0 0.0 0.00 0.00 0.00 99 1019.6
20260901064853 74 184 0.0 0.0 0.00 0.00 0.00 99 1019.6
20260901064349 74 183 0.0 0.0 0.00 0.00 0.00 99 1019.9
20260901063846 74 187 0.0 0.0 0.00 0.00 0.00 99 1019.9
20260901063343 74 187 0.0 0.0 0.00 0.00 0.00 99 1019.9
20260901062838 74 187 0.0 0.0 0.00 0.00 0.00 99 1019.9
20260901062334 74 187 0.0 0.0 0.00 0.00 0.00 99 1020.2
20260901061829 74 187 0.0 0.0 0.00 0.00 0.00 99 1019.9
20260901061324 74 187 0.0 0.0 0.00 0.00 0.00 99 1020.0
20260901060814 74 187 0.0 0.0 0.00 0.00 0.00 99 1020.4
20260901060310 74 187 0.0 0.0 0.00 0.00 0.00 99 1020.1
20260901055804 74 187 0.0 0.0 0.00 0.00 0.00 98 1020.3
20260901055300 74 187 0.0 0.0 0.00 0.00 0.00 98 1020.2
20260901054757 74 187 0.0 0.0 0.00 0.00 0.00 98 1020.4
20260901054254 74 187 0.0 0.0 0.00 0.00 0.00 97 1020.3
20260901053749 74 187 0.0 0.0 0.00 0.00 0.00 97 1020.3
20260901053244 75 187 0.0 0.0 0.00 0.00 0.00 97 1020.5
20260901052739 75 188 0.0 0.0 0.00 0.00 0.00 97 1020.4
20260901052235 75 187 0.0 0.0 0.00 0.00 0.00 97 1020.4
20260901051734 75 185 0.0 0.0 0.00 0.00 0.00 96 1020.4
20260901051228 75 196 0.0 0.0 0.00 0.00 0.00 96 1020.6
20260901050724 75 197 0.0 0.0 0.00 0.00 0.00 95 1020.6
20260901050219 75 197 0.0 0.0 0.00 0.00 0.00 95 1020.6
20260901045714 75 197 0.0 0.0 0.00 0.00 0.00 94 1020.6
20260901045209 75 196 0.0 0.0 0.00 0.00 0.00 94 1020.7
20260901044704 75 209 0.0 0.0 0.00 0.00 0.00 94 1020.4
20260901044201 76 209 0.0 0.0 0.00 0.00 0.00 94 1020.5
20260901043656 76 198 0.0 0.0 0.00 0.00 0.00 94 1020.4
20260901043151 76 198 0.0 0.0 0.00 0.00 0.00 94 1020.4
20260901042650 76 198 0.0 0.0 0.00 0.00 0.00 94 1020.4
20260901042145 76 199 0.0 0.0 0.00 0.00 0.00 93 1020.5
20260901041641 76 198 0.0 0.0 0.00 0.00 0.00 93 1020.2
20260901041136 76 221 0.0 0.0 0.00 0.00 0.00 92 1020.2
20260901040636 76 226 0.0 0.0 0.00 0.00 0.00 92 1020.4
20260901040135 76 199 0.0 0.0 0.00 0.00 0.00 92 1020.3
20260901035633 76 203 0.0 0.0 0.00 0.00 0.00 92 1020.2
20260901035132 76 203 0.0 0.0 0.00 0.00 0.00 92 1020.1
20260901034627 76 203 0.0 0.0 0.00 0.00 0.00 92 1020.3
20260901034121 76 203 0.0 0.0 0.00 0.00 0.00 92 1020.2
20260901033620 76 203 0.0 0.0 0.00 0.00 0.00 92 1020.3
20260901033115 76 188 0.0 0.0 0.00 0.00 0.00 92 1020.0
20260901032613 76 189 0.0 0.0 0.00 0.00 0.00 91 1020.2
20260901032108 75 181 0.0 0.0 0.00 0.00 0.00 91 1020.1
20260901031604 75 181 0.0 0.0 0.00 0.00 0.00 92 1020.2
20260901031100 75 181 0.0 0.0 0.00 0.00 0.00 91 1020.1
20260901030559 75 181 0.0 0.0 0.00 0.00 0.00 91 1020.1
20260901030054 76 181 0.0 0.0 0.00 0.00 0.00 91 1020.2
20260901025554 76 181 0.0 0.0 0.00 0.00 0.00 91 1020.0
20260901025049 76 181 0.0 0.0 0.00 0.00 0.00 90 1019.9
20260901024544 76 181 0.0 0.0 0.00 0.00 0.00 90 1019.8
20260901024042 76 184 0.0 0.0 0.00 0.00 0.00 90 1019.9
20260901023541 76 184 0.0 0.0 0.00 0.00 0.00 89 1020.1
20260901023036 76 186 0.0 0.0 0.00 0.00 0.00 89 1019.9
20260901022531 77 186 0.0 0.0 0.00 0.00 0.00 89 1020.0
20260901022027 77 185 0.0 0.0 0.00 0.00 0.00 89 1019.8
20260901021523 77 184 0.0 0.0 0.00 0.00 0.00 88 1019.8
20260901021018 77 200 0.0 0.0 0.00 0.00 0.00 88 1019.9
20260901020513 77 198 0.0 0.0 0.00 0.00 0.00 88 1019.5
20260901020008 77 231 0.0 0.0 0.00 0.00 0.00 88 1019.8
20260901015504 77 231 0.0 0.0 0.00 0.00 0.00 88 1019.7
20260901015003 78 232 0.0 0.0 0.00 0.00 0.00 88 1019.5
20260901014459 78 232 0.0 0.0 0.00 0.00 0.00 86 1019.6
20260901013954 78 228 0.0 0.0 0.00 0.00 0.00 86 1019.4
20260901013450 78 230 0.0 0.0 0.00 0.00 0.00 85 1019.5
20260901012946 79 230 0.0 0.0 0.00 0.00 0.00 85 1019.4
20260901012445 79 230 0.0 0.0 0.00 0.00 0.00 84 1019.3
20260901011941 79 230 0.0 0.0 0.00 0.00 0.00 84 1019.4
20260901011437 79 230 0.0 0.0 0.00 0.00 0.00 84 1019.0
20260901010935 79 230 0.0 0.0 0.00 0.00 0.00 83 1018.9
20260901010430 80 230 0.0 0.0 0.00 0.00 0.00 82 1019.0
20260901005929 80 230 0.0 0.0 0.00 0.00 0.00 82 1019.0
20260901005424 80 230 0.0 0.0 0.00 0.00 0.00 81 1018.8
20260901004919 81 230 0.0 0.0 0.00 0.00 0.00 81 1018.9
20260901004418 81 230 0.0 0.0 0.00 0.00 0.00 80 1018.7
20260901003913 81 230 0.0 0.0 0.00 0.00 0.00 80 1018.6
20260901003409 82 230 0.0 0.0 0.00 0.00 0.00 79 1018.8
20260901002907 82 230 0.0 0.0 0.00 0.00 0.00 79 1018.6
20260901002407 82 230 0.0 0.0 0.00 0.00 0.00 78 1018.6
20260901001901 83 230 0.0 0.0 0.00 0.00 0.00 77 1018.4
20260901001356 83 230 0.0 0.0 0.00 0.00 0.00 76 1018.4
20260901000852 83 230 0.0 0.0 0.00 0.00 0.00 75 1018.6
20260901000347 84 230 0.0 0.0 0.00 0.00 0.00 75 1018.4
20260831235845 84 230 0.0 0.0 0.00 0.00 0.00 73 1018.4
20260831235342 85 230 0.0 0.0 0.00 0.00 0.00 73 1018.5
20260831234836 85 230 0.0 0.0 0.00 0.00 0.00 73 1018.4
20260831234336 86 230 0.0 0.0 0.00 0.00 0.00 72 1018.4
20260831233832 86 230 0.0 0.0 0.00 0.00 0.00 72 1018.3
20260831233327 86 230 0.0 0.0 0.00 0.00 0.00 72 1018.4
20260831232822 87 231 0.0 0.0 0.00 0.00 0.00 70 1018.5
20260831232318 88 228 0.0 0.0 0.00 0.00 0.00 67 1018.4
20260831231814 88 227 0.0 0.0 0.00 0.00 0.00 65 1018.6
20260831231311 89 209 0.0 0.0 0.00 0.00 0.00 64 1018.4
20260831230805 89 223 0.0 0.0 0.00 0.00 0.00 63 1018.5
20260831230301 90 222 0.0 0.0 0.00 0.00 0.00 62 1018.3
20260831225800 91 227 0.0 0.0 0.00 0.00 0.00 59 1018.5
20260831225255 91 211 0.0 0.0 0.00 0.00 0.00 59 1018.4
20260831224750 91 208 0.0 0.0 0.00 0.00 0.00 57 1018.2
20260831224245 92 188 0.0 0.0 0.00 0.00 0.00 56 1018.1
20260831223740 93 217 0.0 0.0 0.00 0.00 0.00 56 1018.2
20260831223237 93 232 0.0 0.0 0.00 0.00 0.00 55 1018.3
20260831222733 93 217 0.0 0.0 0.00 0.00 0.00 56 1018.3
20260831222228 93 212 0.0 0.0 0.00 0.00 0.00 57 1018.4
20260831221723 93 223 0.0 0.0 0.00 0.00 0.00 56 1018.4
20260831221219 93 226 0.0 0.0 0.00 0.00 0.00 56 1018.2
20260831220714 93 46 0.0 0.0 0.00 0.00 0.00 56 1018.1
20260831220209 93 210 0.0 0.0 0.00 0.00 0.00 56 1018.0
20260831215704 94 228 0.0 0.0 0.00 0.00 0.00 56 1018.2
20260831215200 94 212 0.0 0.0 0.00 0.00 0.00 56 1018.1
20260831214657 94 245 0.0 0.0 0.00 0.00 0.00 55 1018.1
20260831214153 93 244 0.0 0.0 0.00 0.00 0.00 54 1018.2
20260831213649 93 260 0.0 0.0 0.00 0.00 0.00 53 1018.1
20260831213144 93 226 0.0 0.0 0.00 0.00 0.00 56 1018.2
20260831212640 94 234 0.0 0.0 0.00 0.00 0.00 57 1018.2
20260831212137 94 235 0.0 0.0 0.00 0.00 0.00 55 1018.0
20260831211635 94 187 0.0 0.0 0.00 0.00 0.00 53 1018.1
20260831211135 95 247 0.0 0.0 0.00 0.00 0.00 53 1018.1
20260831210631 95 222 0.0 0.0 0.00 0.00 0.00 53 1018.4
20260831210127 97 209 0.0 0.0 0.00 0.00 0.00 50 1018.3
20260831205626 97 222 0.0 0.0 0.00 0.00 0.00 50 1018.2
20260831205122 96 240 0.0 0.0 0.00 0.00 0.00 51 1018.5
20260831204622 95 229 0.0 0.0 0.00 0.00 0.00 53 1018.3
20260831204120 92 242 0.0 0.0 0.00 0.00 0.00 57 1018.6
20260831203615 92 231 0.0 0.0 0.00 0.00 0.00 62 1018.6
20260831203114 93 138 0.0 0.0 0.00 0.00 0.00 55 1018.6
20260831202613 94 228 0.0 0.0 0.00 0.00 0.00 54 1018.5
20260831202108 96 194 0.0 0.0 0.00 0.00 0.00 52 1018.7
20260831201606 97 215 0.0 0.0 0.00 0.00 0.00 50 1018.6